| time (UTC) | temp F | wind direction | speed knots | gust knots | rain 1hr in | rain 24hr in | rain mn in | humidity % | barometer mb |
| 20260507080118 | 57 | 43 | 0.0 | 1.7 | 0.00 | 0.16 | 0.12 | 88 | 1011.5 |
| 20260507075215 | 57 | 335 | 2.6 | 5.2 | 0.00 | 0.16 | 0.12 | 89 | 1011.6 |
| 20260507074215 | 57 | 314 | 0.9 | 3.5 | 0.00 | 0.16 | 0.12 | 88 | 1011.6 |
| 20260507071316 | 58 | 349 | 4.3 | 9.6 | 0.00 | 0.16 | 0.12 | 89 | 1011.0 |
| 20260507070333 | 58 | 360 | 4.3 | 5.2 | 0.01 | 0.16 | 0.12 | 89 | 1010.8 |
| 20260507065414 | 58 | 329 | 1.7 | 3.5 | 0.05 | 0.16 | 0.12 | 90 | 1010.2 |
| 20260507064416 | 58 | 1 | 2.6 | 5.2 | 0.08 | 0.16 | 0.12 | 90 | 1010.2 |
| 20260507063416 | 59 | 90 | 0.0 | 0.0 | 0.10 | 0.16 | 0.12 | 89 | 1010.1 |
| 20260507061416 | 59 | 275 | 0.0 | 0.9 | 0.12 | 0.16 | 0.12 | 88 | 1010.7 |
| 20260507060418 | 60 | 270 | 1.7 | 5.2 | 0.11 | 0.15 | 0.11 | 87 | 1010.2 |
| 20260507055415 | 61 | 26 | 1.7 | 3.5 | 0.07 | 0.11 | 0.07 | 86 | 1010.8 |
| 20260507054315 | 62 | 334 | 1.7 | 5.2 | 0.04 | 0.08 | 0.03 | 84 | 1010.9 |
| 20260507053316 | 63 | 354 | 1.7 | 2.6 | 0.02 | 0.06 | 0.01 | 81 | 1011.2 |
| 20260507052319 | 64 | 25 | 3.5 | 5.2 | 0.00 | 0.04 | 0.00 | 77 | 1010.6 |
| 20260507051415 | 65 | 178 | 0.9 | 2.6 | 0.00 | 0.04 | 0.00 | 77 | 1011.1 |
| 20260507050415 | 65 | 318 | 0.0 | 1.7 | 0.00 | 0.04 | 0.00 | 78 | 1011.1 |
| 20260507045416 | 65 | 225 | 0.0 | 1.7 | 0.00 | 0.04 | 0.00 | 80 | 1010.8 |
| 20260507044418 | 65 | 340 | 0.0 | 1.7 | 0.00 | 0.04 | 0.00 | 83 | 1010.8 |
| 20260507043415 | 65 | 129 | 0.0 | 2.6 | 0.00 | 0.04 | 0.00 | 84 | 1010.8 |
| 20260507042417 | 65 | 81 | 1.7 | 2.6 | 0.00 | 0.04 | 0.00 | 85 | 1010.5 |
| 20260507041515 | 65 | 180 | 0.0 | 0.9 | 0.00 | 0.04 | 0.00 | 83 | 1010.2 |
| 20260507040516 | 65 | 180 | 1.7 | 2.6 | 0.00 | 0.04 | 0.00 | 84 | 1010.1 |
| 20260507035548 | 65 | 180 | 2.6 | 3.5 | 0.00 | 0.04 | 0.04 | 84 | 1010.4 |
| 20260507034632 | 65 | 180 | 2.6 | 3.5 | 0.00 | 0.04 | 0.04 | 85 | 1010.4 |
| 20260507033631 | 65 | 180 | 1.7 | 2.6 | 0.00 | 0.04 | 0.04 | 86 | 1010.2 |
| 20260507031633 | 65 | 180 | 0.0 | 0.0 | 0.00 | 0.04 | 0.04 | 85 | 1010.0 |
| 20260507030632 | 65 | 180 | 0.0 | 0.9 | 0.00 | 0.04 | 0.04 | 84 | 1010.0 |
| 20260507025632 | 65 | 180 | 0.9 | 1.7 | 0.00 | 0.04 | 0.04 | 84 | 1009.8 |
| 20260507024731 | 65 | 180 | 1.7 | 2.6 | 0.00 | 0.04 | 0.04 | 85 | 1010.0 |
| 20260507023831 | 65 | 180 | 2.6 | 3.5 | 0.00 | 0.04 | 0.04 | 84 | 1010.1 |
| 20260507021833 | 64 | 180 | 1.7 | 2.6 | 0.00 | 0.04 | 0.04 | 88 | 1010.2 |
| 20260507015831 | 63 | 202 | 0.0 | 0.0 | 0.00 | 0.04 | 0.04 | 85 | 1010.4 |
| 20260507012930 | 63 | 202 | 0.0 | 0.0 | 0.00 | 0.04 | 0.04 | 85 | 1010.9 |
| 20260507011932 | 64 | 202 | 0.0 | 0.0 | 0.00 | 0.04 | 0.04 | 84 | 1010.6 |
| 20260507011031 | 65 | 202 | 0.0 | 0.0 | 0.00 | 0.04 | 0.04 | 82 | 1010.3 |
| 20260507010033 | 65 | 202 | 0.0 | 0.0 | 0.00 | 0.04 | 0.04 | 82 | 1010.5 |
| 20260507004030 | 66 | 202 | 0.0 | 0.9 | 0.00 | 0.04 | 0.04 | 79 | 1010.2 |
| 20260507003033 | 66 | 202 | 0.9 | 1.7 | 0.00 | 0.04 | 0.04 | 79 | 1010.1 |
| 20260507002131 | 67 | 202 | 0.9 | 2.6 | 0.00 | 0.04 | 0.04 | 79 | 1010.1 |
| 20260507001133 | 67 | 180 | 1.7 | 2.6 | 0.00 | 0.04 | 0.04 | 79 | 1010.1 |
| 20260506234149 | 67 | 180 | 2.6 | 3.5 | 0.00 | 0.04 | 0.04 | 77 | 1009.8 |
| 20260506233231 | 68 | 171 | 3.5 | 5.2 | 0.00 | 0.04 | 0.04 | 75 | 1009.8 |
| 20260506232230 | 68 | 158 | 2.6 | 4.3 | 0.00 | 0.04 | 0.04 | 75 | 1009.5 |
| 20260506225330 | 68 | 180 | 4.3 | 7.0 | 0.00 | 0.04 | 0.04 | 74 | 1009.7 |
| 20260506224332 | 68 | 196 | 6.1 | 8.7 | 0.00 | 0.04 | 0.04 | 75 | 1009.6 |
| 20260506223330 | 68 | 182 | 4.3 | 7.0 | 0.00 | 0.04 | 0.04 | 75 | 1009.6 |
| 20260506222331 | 68 | 169 | 6.1 | 8.7 | 0.00 | 0.04 | 0.04 | 75 | 1009.7 |
| 20260506221429 | 68 | 208 | 4.3 | 6.1 | 0.00 | 0.04 | 0.04 | 75 | 1009.7 |
| 20260506220448 | 68 | 219 | 4.3 | 5.2 | 0.00 | 0.04 | 0.04 | 74 | 1009.8 |
| 20260506215431 | 68 | 204 | 3.5 | 6.1 | 0.00 | 0.04 | 0.04 | 73 | 1010.0 |
| 20260506214448 | 68 | 180 | 5.2 | 7.8 | 0.00 | 0.04 | 0.04 | 74 | 1009.8 |
| 20260506213430 | 68 | 178 | 7.0 | 10.4 | 0.00 | 0.04 | 0.04 | 74 | 1009.5 |
| 20260506212432 | 68 | 177 | 5.2 | 8.7 | 0.00 | 0.04 | 0.04 | 73 | 1009.7 |
| 20260506211530 | 68 | 181 | 8.7 | 15.6 | 0.00 | 0.04 | 0.04 | 74 | 1009.5 |
| 20260506210530 | 68 | 166 | 7.8 | 10.4 | 0.00 | 0.04 | 0.04 | 74 | 1009.3 |
| 20260506205531 | 68 | 176 | 7.0 | 8.7 | 0.00 | 0.04 | 0.04 | 74 | 1009.3 |
| 20260506204532 | 68 | 173 | 7.0 | 10.4 | 0.00 | 0.04 | 0.04 | 73 | 1009.4 |
| 20260506204433 | 68 | 176 | 7.8 | 10.4 | 0.00 | 0.04 | 0.04 | 73 | 1009.3 |
| 20260506203531 | 68 | 196 | 7.8 | 9.6 | 0.00 | 0.04 | 0.04 | 73 | 1009.3 |
| 20260506202532 | 68 | 178 | 7.8 | 10.4 | 0.00 | 0.04 | 0.04 | 74 | 1009.3 |
| 20260506201530 | 68 | 185 | 7.0 | 9.6 | 0.00 | 0.04 | 0.04 | 74 | 1009.3 |
| 20260506200531 | 68 | 179 | 7.8 | 12.2 | 0.00 | 0.04 | 0.04 | 74 | 1009.4 |
| 20260506195529 | 68 | 202 | 7.8 | 13.0 | 0.00 | 0.04 | 0.04 | 73 | 1009.6 |
| 20260506194531 | 68 | 189 | 7.8 | 9.6 | 0.00 | 0.04 | 0.04 | 73 | 1009.8 |
| 20260506193630 | 67 | 181 | 7.8 | 10.4 | 0.00 | 0.04 | 0.04 | 74 | 1009.8 |
| 20260506192631 | 67 | 196 | 10.4 | 15.6 | 0.00 | 0.04 | 0.04 | 74 | 1009.8 |
| 20260506191630 | 68 | 186 | 8.7 | 11.3 | 0.00 | 0.04 | 0.04 | 73 | 1010.1 |
| 20260506190729 | 68 | 174 | 7.8 | 11.3 | 0.00 | 0.04 | 0.04 | 72 | 1009.9 |
| 20260506185733 | 67 | 183 | 10.4 | 14.8 | 0.00 | 0.04 | 0.04 | 73 | 1009.7 |
| 20260506184830 | 67 | 182 | 9.6 | 14.8 | 0.00 | 0.04 | 0.04 | 73 | 1010.1 |
| 20260506183831 | 67 | 173 | 8.7 | 11.3 | 0.00 | 0.04 | 0.04 | 73 | 1010.4 |
| 20260506182829 | 67 | 210 | 7.0 | 9.6 | 0.00 | 0.04 | 0.04 | 73 | 1010.8 |
| 20260506180831 | 66 | 181 | 9.6 | 13.0 | 0.00 | 0.04 | 0.04 | 74 | 1010.8 |
| 20260506175831 | 66 | 181 | 8.7 | 12.2 | 0.00 | 0.04 | 0.04 | 76 | 1010.9 |
| 20260506172832 | 65 | 186 | 9.6 | 13.0 | 0.00 | 0.04 | 0.04 | 78 | 1010.9 |
| 20260506171930 | 64 | 170 | 9.6 | 13.9 | 0.00 | 0.04 | 0.04 | 79 | 1010.8 |
| 20260506171029 | 64 | 179 | 8.7 | 13.0 | 0.00 | 0.04 | 0.04 | 79 | 1011.2 |
| 20260506165031 | 64 | 182 | 10.4 | 13.9 | 0.03 | 0.04 | 0.04 | 80 | 1011.3 |
| 20260506164129 | 64 | 177 | 9.6 | 16.5 | 0.03 | 0.04 | 0.04 | 81 | 1011.4 |
| 20260506163129 | 63 | 183 | 9.6 | 13.0 | 0.03 | 0.04 | 0.04 | 84 | 1011.4 |
| 20260506162131 | 62 | 182 | 7.8 | 10.4 | 0.03 | 0.04 | 0.04 | 84 | 1011.5 |
| 20260506161131 | 63 | 179 | 7.8 | 10.4 | 0.03 | 0.04 | 0.04 | 82 | 1011.6 |
| 20260506160229 | 63 | 178 | 7.0 | 10.4 | 0.02 | 0.02 | 0.02 | 81 | 1011.7 |
| 20260506155230 | 63 | 186 | 4.3 | 7.0 | 0.02 | 0.02 | 0.02 | 81 | 1012.1 |
| 20260506154245 | 63 | 185 | 6.1 | 7.0 | 0.01 | 0.01 | 0.01 | 80 | 1012.2 |
| 20260506153233 | 63 | 190 | 5.2 | 7.0 | 0.01 | 0.01 | 0.01 | 80 | 1012.6 |
| 20260506152231 | 64 | 176 | 3.5 | 7.0 | 0.01 | 0.01 | 0.01 | 79 | 1012.5 |
| 20260506151230 | 64 | 180 | 4.3 | 5.2 | 0.01 | 0.01 | 0.01 | 77 | 1012.6 |
| 20260506150230 | 65 | 180 | 6.1 | 9.6 | 0.00 | 0.00 | 0.00 | 76 | 1012.5 |
| 20260506145233 | 65 | 183 | 6.1 | 8.7 | 0.00 | 0.00 | 0.00 | 75 | 1012.6 |
| 20260506144330 | 65 | 225 | 5.2 | 7.8 | 0.00 | 0.00 | 0.00 | 74 | 1012.6 |
| 20260506143330 | 66 | 180 | 6.1 | 7.8 | 0.00 | 0.00 | 0.00 | 70 | 1012.6 |
| 20260506142329 | 67 | 173 | 8.7 | 13.0 | 0.00 | 0.00 | 0.00 | 68 | 1012.4 |
| 20260506141330 | 67 | 177 | 7.8 | 10.4 | 0.00 | 0.00 | 0.00 | 68 | 1012.6 |
| 20260506135331 | 67 | 178 | 8.7 | 10.4 | 0.00 | 0.00 | 0.00 | 67 | 1012.4 |
| 20260506134430 | 67 | 179 | 7.8 | 9.6 | 0.00 | 0.00 | 0.00 | 67 | 1012.2 |
| 20260506133432 | 67 | 173 | 9.6 | 13.0 | 0.00 | 0.00 | 0.00 | 65 | 1012.1 |
| 20260506130531 | 67 | 177 | 8.7 | 12.2 | 0.00 | 0.00 | 0.00 | 67 | 1012.2 |
| 20260506124532 | 66 | 179 | 10.4 | 16.5 | 0.00 | 0.00 | 0.00 | 66 | 1012.3 |
| 20260506123530 | 66 | 179 | 7.8 | 12.2 | 0.00 | 0.00 | 0.00 | 66 | 1012.5 |
| 20260506122530 | 66 | 180 | 11.3 | 15.6 | 0.00 | 0.00 | 0.00 | 66 | 1012.7 |
| 20260506121531 | 66 | 168 | 7.0 | 11.3 | 0.00 | 0.00 | 0.00 | 66 | 1012.8 |
| 20260506120629 | 66 | 173 | 10.4 | 13.9 | 0.00 | 0.00 | 0.00 | 67 | 1012.9 |
| 20260506115629 | 66 | 197 | 7.8 | 12.2 | 0.00 | 0.00 | 0.00 | 66 | 1012.7 |
| 20260506114629 | 66 | 176 | 7.8 | 10.4 | 0.00 | 0.00 | 0.00 | 66 | 1012.7 |
| 20260506113629 | 65 | 210 | 7.8 | 10.4 | 0.00 | 0.00 | 0.00 | 67 | 1012.6 |
| 20260506112629 | 65 | 187 | 7.0 | 9.6 | 0.00 | 0.00 | 0.00 | 68 | 1012.5 |
| 20260506111531 | 65 | 177 | 7.0 | 12.2 | 0.00 | 0.00 | 0.00 | 69 | 1012.5 |
| 20260506110531 | 65 | 170 | 7.8 | 9.6 | 0.00 | 0.00 | 0.00 | 69 | 1012.3 |
| 20260506105629 | 65 | 178 | 7.8 | 12.2 | 0.00 | 0.00 | 0.00 | 69 | 1012.3 |
| 20260506104631 | 65 | 183 | 7.0 | 10.4 | 0.00 | 0.00 | 0.00 | 68 | 1012.2 |
| 20260506103630 | 64 | 187 | 8.7 | 11.3 | 0.00 | 0.00 | 0.00 | 69 | 1012.3 |
| 20260506102630 | 64 | 189 | 8.7 | 13.0 | 0.00 | 0.00 | 0.00 | 71 | 1012.1 |
| 20260506101729 | 64 | 181 | 7.0 | 10.4 | 0.00 | 0.00 | 0.00 | 71 | 1012.1 |
| 20260506100731 | 64 | 181 | 7.0 | 12.2 | 0.00 | 0.00 | 0.00 | 71 | 1012.3 |
| 20260506095730 | 64 | 190 | 6.1 | 8.7 | 0.00 | 0.00 | 0.00 | 72 | 1012.3 |
| 20260506094745 | 64 | 183 | 7.8 | 9.6 | 0.00 | 0.00 | 0.00 | 72 | 1012.4 |
| 20260506093831 | 64 | 182 | 7.0 | 9.6 | 0.00 | 0.00 | 0.00 | 72 | 1012.3 |
| 20260506091829 | 65 | 179 | 8.7 | 13.0 | 0.00 | 0.00 | 0.00 | 72 | 1012.3 |
| 20260506085832 | 65 | 181 | 6.1 | 7.8 | 0.00 | 0.00 | 0.00 | 72 | 1012.3 |
| 20260506084829 | 65 | 181 | 7.8 | 10.4 | 0.00 | 0.00 | 0.00 | 71 | 1012.3 |
| 20260506083831 | 65 | 168 | 8.7 | 15.6 | 0.00 | 0.00 | 0.00 | 72 | 1012.3 |
| 20260506082830 | 65 | 180 | 7.0 | 10.4 | 0.00 | 0.00 | 0.00 | 72 | 1012.2 |
| 20260506081832 | 65 | 180 | 8.7 | 12.2 | 0.00 | 0.00 | 0.00 | 72 | 1012.4 |
| 20260506080829 | 65 | 175 | 7.8 | 11.3 | 0.00 | 0.00 | 0.00 | 71 | 1012.3 |